Other Public Products
Issued by NWS Grand Forks, ND

Home | Current Version | Previous Version | Graphics & Text | Print | Product List | Glossary On
Versions: 1 2 3 4 5 6 7 8 9 10 11 12 13 14 15 16 17 18 19 20 21 22 23 24 25 26 27 28 29 30 31 32 33 34 35 36 37 38 39 40 41 42 43 44 45 46 47 48 49 50
000
FPUS83 KFGF 242210
OPUFGF
PRAIRIE TO PINES WEATHER ROUNDUP
NATIONAL WEATHER SERVICE EASTERN NORTH DAKOTA/GRAND FORKS ND
500 PM CDT SUN JUL 24 2016

 **SATELLITE DATA USED TO AUGMENT SKY COVER AT AUTOMATED STATIONS**
 *****  WEATHER ACROSS EASTERN NORTH DAKOTA  *****

CITY           SKY/WX    TMP DP  RH WIND       PRES   REMARKS
GRAND FORKS    MOSUNNY   79  62  56 NW15      29.89S
GRAND FORKS AF SUNNY     78  61  54 NW14      29.91S
GRAND CITY NWS   N/A     81 N/A N/A NW14        N/A
BUXTON           N/A     80  62  53 W14G26      N/A
DEVILS LAKE    SUNNY     77  58  51 NW18G24   29.96S
FARGO          SUNNY     82  58  43 NW15G28   29.93R
WAHPETON ARPT  CLEAR     79  52  38 W21       29.96S
$$

 *****  WEATHER ACROSS CENTRAL AND WESTERN NORTH DAKOTA  *****

CITY           SKY/WX    TMP DP  RH WIND       PRES   REMARKS
JAMESTOWN      SUNNY     79  57  46 W16       29.98F
BISMARCK       SUNNY     84  53  34 NW14G26   30.02F
MINOT          SUNNY     84  55  36 NW15      29.99S
MINOT AFB      SUNNY     80  55  42 NW16      29.98S
GARRISON         N/A     80  55  42 NW13      30.02F
WILLISTON      MOSUNNY   87  50  27 NW9       30.00F
DICKINSON      MOSUNNY   82  48  30 NW8       30.05F
HETTINGER      PTSUNNY   88  42  20 VRB3      30.08S
$$

 *****  OTHER OBSERVATIONS NORTHEAST NORTH DAKOTA  *****

CITY           SKY/WX    TMP DP  RH WIND       PRES   REMARKS
WALHALLA       NOT AVBL
LANGDON        MOCLDY    75  63  64 NW12G21   29.94R
CAVALIER       FAIR      79  61  53 W14G23    29.88S
GRAFTON        FAIR      81  63  54 W20       29.90S
CANDO          NOT AVBL
FORT TOTTEN      N/A     78  60  52 NW9       29.95S
ROLLA            N/A     73  57  56 NW13G21   29.97S
RUGBY          NOT AVBL
 ***** THE ABOVE OBSERVATIONS ARE NON NWS ARE NOT QUALITY
        CONTROLLED AND MAY MIS-REPORT RAIN FOR SNOW...
$$

 *****  OTHER OBSERVATIONS SOUTHEAST NORTH DAKOTA *****

CITY           SKY/WX    TMP DP  RH WIND       PRES   REMARKS
COOPERSTOWN    NOT AVBL
VALLEY CITY    FAIR      79  57  47 NW21G33   30.00R
OAKES            N/A    N/A N/A N/A MISG        N/A
GWINNER        FAIR      82  57  42 NW16G23   29.99S
BUFFALO          N/A     79  50  36 NW18        N/A
WYNDMERE       NOT AVBL
 ***** THE ABOVE OBSERVATIONS ARE NON NWS ARE NOT QUALITY
       CONTROLLED AND MAY MIS-REPORT RAIN FOR SNOW...
$$

  *****  WEATHER ACROSS NORTHERN MINNESOTA  *****

CITY           SKY/WX    TMP DP  RH WIND       PRES   REMARKS
FLAG ISLAND    MOSUNNY   75  57  53 W22G28    29.79S
WARROAD        SUNNY     75  64  69 W14G24    29.83F
ROSEAU         SUNNY     77  64  65 NW14G20   29.85R
HALLOCK        SUNNY     79  63  57 NW12      29.87R
THF RVR FALLS  MOSUNNY   77  62  59 W16G23    29.90R
HALSTAD        NOT AVBL
FOSSTON        SUNNY     79  61  53 W16       29.92R
BAUDETTE       MOSUNNY   78  59  51 W17G30    29.83R
WASKISH        MOSUNNY   79  63  57 W16G23    29.86R
CROOKSTON      MOSUNNY   81  63  54 NW16      29.90S
$$
  *****  WEATHER ACROSS CENTRAL AND WEST MINNESOTA  *****

CITY           SKY/WX    TMP DP  RH WIND       PRES   REMARKS
BEMIDJI        SUNNY     79  59  50 W18G28    29.90R
PARK RAPIDS    MOSUNNY   81  60  48 NW14      29.92R
WADENA         MOSUNNY   77  61  57 W13G22    29.94S
DETROIT LAKES  SUNNY     77  59  53 NW12G17   29.96R
MOORHEAD       SUNNY     81  55  41 NW16G26   29.94S
FERGUS FALLS   MOSUNNY   79  57  47 NW20      29.96S
ELBOW LAKE     FAIR      78  59  51 NW13G18   29.98S
MORRIS MN      MOSUNNY   84  59  42 NW15      29.96S
STAPLES        MOSUNNY   79  55  44 W16G23    29.94R
WHEATON        NOT AVBL
$$
  *****  WEATHER ELSEWHERE ACROSS MINNESOTA  *****

CITY           SKY/WX    TMP DP  RH WIND       PRES   REMARKS
DULUTH         MOSUNNY   78  60  53 NW17G23   29.86R
INTRNTL FALLS  PTSUNNY   75  59  57 W14G23    29.81R
ELY            PTSUNNY   77  57  50 W14G22    29.82R
CLOQUET        PTSUNNY   79  57  47 W15       29.88R
BRAINERD       PTSUNNY   80  59  48 W16G23    29.92R
HIBBING        SUNNY     75  58  55 NW14G22   29.86R
ALEXANDRIA     MOSUNNY   80  57  45 W17G23    29.98S
SAINT CLOUD    MOSUNNY   80  63  55 W13       29.94R
MINNEAPOLIS    MOSUNNY   84  61  45 NW18G26   29.94R
$$

  *****  WEATHER ACROSS SOUTH DAKOTA  *****

CITY           SKY/WX    TMP DP  RH WIND       PRES   REMARKS
SIOUX FALLS    CLOUDY    77  62  59 NW9       30.03F
BROOKINGS      CLOUDY    78  60  53 NW13      30.04S
WATERTOWN      MOSUNNY   82  57  42 NW15      30.02F
HURON          SUNNY     84  60  44 W5        30.02F
SISSETON         N/A     82  58  43 N12       29.97F
ABERDEEN       SUNNY     85  55  35 NW14      30.01S
MITCHELL       CLOUDY    79  61  53 W5        30.05F
PIERRE         SUNNY     85  52  32 VRB5      30.04F
MOBRIDGE       SUNNY     88  50  27 NW8       30.02F
RAPID CITY     SUNNY     87  47  24 VRB7G17   30.10F
$$

  *****  SOME WEATHER IN NEARBY STATES *****

CITY           SKY/WX    TMP DP  RH WIND       PRES   REMARKS
GLASGOW MT     SUNNY     88  46  23 NW9G22    29.98S
GREAT FALLS MT SUNNY     85  33  15 MISG      30.05F
CHEYENNE WY    CLOUDY    69  55  60 SE15G28   30.22F
SCOTTSBLUFF NE LGT RAIN  77  55  46 E14G26    30.09F
OMAHA NE       PTSUNNY   83  67  58 N6        30.01S
DES MOINES IA  CLOUDY    86  65  49 N17       29.97R
DAVENPORT IA   CLOUDY    88  80  77 W8        29.89R HX 104
CHICAGO IL     CLOUDY    91  78  65 SW10      29.84F HX 106
EAU CLAIRE WI  SUNNY     84  63  49 W14       29.89R
LA CROSSE WI   SUNNY     88  65  46 W15       29.88R HX  90
$$

  *****  SOME NATIONAL WEATHER *****

CITY           SKY/WX    TMP DP  RH WIND       PRES   REMARKS
LA GUARDIA NY  PTSUNNY   88  64  44 S15       29.92F
RALEIGH NC     PTSUNNY   94  71  47 S9        29.99S HX 101
ATLANTA GA     CLOUDY    90  70  51 SE8       30.02R HX  95
NEW ORLEANS LA RAIN      83  76  79 N8        29.95S HX  91
OKLAHOMA CITY  MOSUNNY   98  67  36 S9        29.92F HX 102
ALBUQUERQUE NM CLOUDY    94  40  15 E20G26    30.08F HX  90
SALT LAKE CITY MOSUNNY   95  28   9 NW8       30.06F
LOS ANGELES CA MOSUNNY   82  65  56 W14       29.91F
BOISE ID       SUNNY     89  33  13 MISG      30.02F
SEATTLE WA     SUNNY     78  58  49 NW10      30.09F
$$

*** WEATHER ACROSS MANITOBA...SASKATCHEWAN AND ONTARIO ***
                ***ONTARIO***

CITY           SKY/WX    TMP DP  RH WIND       PRES   REMARKS
GERALDTON      PTSUNNY   73  66  78 N8        29.66F
THUNDER BAY    MOSUNNY   82  59  44 W17G25    29.69R
SIOUX LOOKOUT  LGT RAIN  68  64  88 W9G24     29.70S
TORONTO        PTSUNNY   79  63  57 SE12G17   29.93F
BIG TROUT LK   LGT RAIN  64  64 100 N5        29.53R
PICKLE LAKE    PTSUNNY   73  61  64 W16G24    29.60R
DRYDEN         CLOUDY    70  61  73 W9G18     29.75R
KENORA         PTSUNNY   72  61  68 W16G24    29.79R
$$
                *** MANITOBA***

CITY           SKY/WX    TMP DP  RH WIND       PRES   REMARKS
BRANDON        PTSUNNY   77  61  57 NW15      29.92R
DAUPHIN        SUNNY     77  57  50 N9        29.87S
ISLAND LAKE    PTSUNNY   64  63  94 N9        29.70R
PILOT MOUND      N/A     73  57  56 W12G20      N/A
THE PAS        MOSUNNY   77  52  41 NW10G17   29.80S
THOMPSON       PTSUNNY   70  59  68 N7        29.78R
WINNIPEG       MOSUNNY   75  63  64 NW17G23   29.85R
LYNN LAKE      PTSUNNY   73  52  46 MISG      29.75S
CHURCHILL      MOSUNNY   55  50  82 E9        29.82S
GILLAM         PTSUNNY   68  57  68 NE9       29.74S
$$
                ***SASKATCHEWAN***

CITY           SKY/WX    TMP DP  RH WIND       PRES   REMARKS
ESTEVAN        MOSUNNY   79  57  47 W10G17    30.00S
KINDERSLEY     MOSUNNY   77  57  50 SW9       29.96F
LLOYDMINSTER   MOSUNNY   79  52  38 W15G21    29.90F
PRINCE ALBERT  MOSUNNY   79  54  41 W15G24    29.86F
REGINA         MOSUNNY   77  54  44 NW15G21   29.99F
YORKTON        MOSUNNY   75  57  53 W15G21    29.93S
N. BATTLEFORD  SUNNY     81  52  36 W15G23    29.92S   C1F1C2F2C3F3C4F4C5F5C6F6C7F7C8F8C9F9CaFaCbFbCcFcCdFdCe!



USA.gov is the U.S. government's official web portal to all federal, state and local government web resources and services.